Pocatello, ID

1:34 AM MDT on April 20, 2018 (GMT -0600)
Pocatello Regional

Weather History for KPIH - April, 2012

Change the Weather History Date:

Sunday, April 15, 2012

  Actual Average Record
Temperature  
Mean Temperature 45 °F 45 °F  
Max Temperature 56 °F 58 °F 78 °F (1985)
Min Temperature 34 °F 33 °F 21 °F (1995)
Degree Days  
Heating Degree Days 20 20  
Month to date heating degree days 314 318  
Since 1 July heating degree days 5989 6430  
Cooling Degree Days 0 0  
Month to date cooling degree days 0 0  
Year to date cooling degree days 0 0  
Moisture  
Dew Point 22 °F    
Average Humidity 44    
Maximum Humidity 64    
Minimum Humidity 24    
Precipitation  
Precipitation 0.00 in 0.04 in 0.56 in (1991)
Month to date precipitation 0.39 0.54  
Year to date precipitation 3.81 3.76  
Snow  
Snow 0.00 in - - ()
Month to date snowfall 0.8  
Since 1 July snowfall 15.8  
Snow Depth 0.00 in    
Sea Level Pressure  
Sea Level Pressure 29.95 in    
Wind  
Wind Speed 15 mph (SW)    
Max Wind Speed 29 mph    
Max Gust Speed 36 mph    
Visibility 10 miles    
Events      
T = Trace of Precipitation, MM = Missing Value Source: NWS Daily Summary

Daily Weather History Graph

Daily Weather History Graph

Search for Another Location

Airport or City:

Astronomy

Apr. 15, 2012 Rise Set
Actual Time 6:47 AM MDT 8:13 PM MDT
Civil Twilight 6:18 AM MDT 8:43 PM MDT
Nautical Twilight 5:42 AM MDT 9:18 PM MDT
Astronomical Twilight 5:05 AM MDT 9:56 PM MDT
Moon 3:55 AM MDT (4/15) 3:05 PM MDT (4/15)
Length of Visible Light 14h 24m
Length of Day
13h 25m
Waning Crescent, 27% of the Moon is Illuminated
Apr 15
Waning Crescent
Apr 21
New
Apr 29
First Quarter
May 5
Full
May 12
Last Quarter

Hourly Weather History & Observations

Time (MDT) Temp. Windchill Dew Point Humidity Pressure Visibility Wind Dir Wind Speed Gust Speed Precip Events Conditions
12:53 AM 43.0 °F 39.5 °F 23.0 °F 45% 29.78 in 10.0 mi ENE 5.8 mph - N/A   Overcast
1:53 AM 41.0 °F 37.1 °F 24.1 °F 51% 29.80 in 10.0 mi East 5.8 mph - N/A   Mostly Cloudy
2:53 AM 43.0 °F - 23.0 °F 45% 29.82 in 10.0 mi Calm Calm - N/A   Overcast
3:53 AM 43.0 °F 36.8 °F 27.0 °F 53% 29.87 in 10.0 mi SW 11.5 mph - N/A   Overcast
4:53 AM 37.9 °F 32.7 °F 26.1 °F 62% 29.90 in 10.0 mi South 6.9 mph - N/A   Mostly Cloudy
5:53 AM 37.9 °F 32.1 °F 25.0 °F 60% 29.92 in 10.0 mi SSW 8.1 mph - N/A   Scattered Clouds
6:53 AM 35.1 °F 27.9 °F 21.9 °F 59% 29.98 in 10.0 mi SSW 9.2 mph - N/A   Mostly Cloudy
7:53 AM 39.9 °F 32.5 °F 21.9 °F 49% 29.99 in 10.0 mi SW 12.7 mph - N/A   Mostly Cloudy
8:53 AM 41.0 °F 33.5 °F 21.9 °F 47% 29.99 in 10.0 mi SW 13.8 mph - N/A   Mostly Cloudy
9:53 AM 43.0 °F 34.2 °F 23.0 °F 45% 30.00 in 10.0 mi WSW 20.7 mph 25.3 mph N/A   Mostly Cloudy
10:53 AM 44.1 °F 36.8 °F 24.1 °F 45% 30.01 in 10.0 mi WSW 16.1 mph - N/A   Mostly Cloudy
11:53 AM 48.9 °F - 24.1 °F 38% 29.99 in 10.0 mi SW 13.8 mph 21.9 mph N/A   Scattered Clouds
12:53 PM 51.1 °F - 24.1 °F 35% 29.98 in 10.0 mi SW 18.4 mph 23.0 mph N/A   Scattered Clouds
1:53 PM 54.0 °F - 21.0 °F 28% 29.95 in 10.0 mi WSW 16.1 mph 25.3 mph N/A   Scattered Clouds
2:53 PM 55.9 °F - 19.0 °F 24% 29.93 in 10.0 mi WNW 13.8 mph 25.3 mph N/A   Scattered Clouds
3:53 PM 54.0 °F - 23.0 °F 30% 29.93 in 10.0 mi WSW 20.7 mph 25.3 mph N/A   Mostly Cloudy
4:53 PM 54.0 °F - 19.0 °F 25% 29.94 in 10.0 mi WSW 25.3 mph 31.1 mph N/A   Mostly Cloudy
5:53 PM 54.0 °F - 19.0 °F 25% 29.94 in 10.0 mi WSW 24.2 mph 32.2 mph N/A   Mostly Cloudy
6:53 PM 52.0 °F - 19.0 °F 27% 29.95 in 10.0 mi WSW 24.2 mph 32.2 mph N/A   Partly Cloudy
7:53 PM 48.9 °F - 18.0 °F 29% 29.95 in 10.0 mi WSW 23.0 mph 32.2 mph N/A   Partly Cloudy
8:53 PM 48.0 °F - 15.1 °F 27% 29.97 in 10.0 mi SW 23.0 mph 29.9 mph N/A   Mostly Cloudy
9:53 PM 45.0 °F 36.6 °F 17.1 °F 33% 30.01 in 10.0 mi SW 21.9 mph 28.8 mph N/A   Clear
10:53 PM 42.1 °F 35.7 °F 19.9 °F 41% 30.04 in 10.0 mi WSW 11.5 mph 21.9 mph N/A   Clear
11:53 PM 37.9 °F 31.5 °F 19.9 °F 48% 30.05 in 10.0 mi SSW 9.2 mph - N/A   Clear